SWR316 BKPR-LSZH

Flight info

Callsign SWR316
Flight time N/A
Altitude 35000
Route KUKAD1A KUKAD DCT RETRA DCT GACMO DCT EVTON DCT KOMAR DCT KUSIB DCT DOL DCT ERKIR DCT KPT L856 NEGRA
Aircraft A333/H-SDE3GHIJ2J3J5M1RVWXY/LB2D1

Departure

Time 2026-04-15 21:51
Airport Priština Adem Jashari International Airport (BKPR)

Arrival

Time N/A
Airport Zürich Airport (LSZH)
Time Latitude Longitude Altitude Speed Heading
2026-04-15 21:17 42.58668 21.03079 1780 ft 0 kts 280°
2026-04-15 21:36 42.58666 21.03100 1782 ft 4 kts 304°
2026-04-15 21:36 42.58658 21.03111 1780 ft 0 kts 340°
2026-04-15 21:37 42.58667 21.03100 1781 ft 2 kts 292°
2026-04-15 21:38 42.58666 21.03102 1782 ft 2 kts 201°
2026-04-15 21:38 42.58668 21.03104 1780 ft 0 kts 175°
2026-04-15 21:41 42.58666 21.03105 1782 ft 2 kts 175°
2026-04-15 21:41 42.58620 21.03113 1782 ft 9 kts 171°
2026-04-15 21:42 42.58537 21.03133 1783 ft 16 kts 170°
2026-04-15 21:42 42.58418 21.03159 1782 ft 11 kts 153°
2026-04-15 21:42 42.58398 21.03213 1782 ft 7 kts 106°
2026-04-15 21:42 42.58399 21.03251 1783 ft 0 kts 73°
2026-04-15 21:45 42.58407 21.03272 1782 ft 12 kts 62°
2026-04-15 21:45 42.58429 21.03325 1783 ft 0 kts 59°
2026-04-15 21:48 42.58449 21.03365 1785 ft 12 kts 51°
2026-04-15 21:49 42.58489 21.03413 1785 ft 2 kts 52°
2026-04-15 21:49 42.58490 21.03423 1784 ft 1 kts 81°
2026-04-15 21:49 42.58457 21.03465 1784 ft 9 kts 161°
2026-04-15 21:49 42.58403 21.03473 1783 ft 1 kts 175°
2026-04-15 21:50 42.58393 21.03474 1782 ft 2 kts 175°
2026-04-15 21:50 42.58385 21.03475 1785 ft 0 kts 175°
2026-04-15 21:50 42.58383 21.03475 1785 ft 3 kts 175°
2026-04-15 21:51 42.58308 21.03483 1781 ft 37 kts 175°
2026-04-15 21:51 42.57526 21.03564 1781 ft 128 kts 175°
2026-04-15 21:51 42.56542 21.03672 2269 ft 145 kts 175°
2026-04-15 21:51 42.55531 21.03774 3061 ft 148 kts 173°
2026-04-15 21:52 42.54493 21.03877 3777 ft 159 kts 172°
2026-04-15 21:52 42.53261 21.04009 4051 ft 197 kts 173°
2026-04-15 21:52 42.52294 21.04112 4289 ft 222 kts 174°
2026-04-15 21:52 42.50686 21.03982 4963 ft 241 kts 193°
2026-04-15 21:53 42.48888 21.02145 6167 ft 255 kts 239°
2026-04-15 21:53 42.48280 20.99866 7128 ft 260 kts 255°
2026-04-15 21:53 42.48007 20.98284 7768 ft 262 kts 257°
2026-04-15 21:53 42.47622 20.95864 8736 ft 264 kts 257°
2026-04-15 21:54 42.47093 20.92612 10019 ft 268 kts 256°
2026-04-15 21:54 42.46676 20.90141 10913 ft 270 kts 256°
2026-04-15 21:54 42.46250 20.87657 11771 ft 273 kts 256°
2026-04-15 21:54 42.45813 20.85147 12644 ft 275 kts 256°
2026-04-15 21:55 42.45520 20.83470 13221 ft 277 kts 255°
2026-04-15 21:55 42.45096 20.80912 14031 ft 283 kts 256°
2026-04-15 21:55 42.44672 20.78209 14349 ft 305 kts 257°
2026-04-15 21:55 42.44221 20.75294 14603 ft 327 kts 257°
2026-04-15 21:56 42.43577 20.71131 14995 ft 354 kts 257°
2026-04-15 21:56 42.43064 20.67827 15567 ft 363 kts 257°
2026-04-15 21:56 42.42713 20.65560 16042 ft 366 kts 257°
2026-04-15 21:56 42.42191 20.62209 16782 ft 370 kts 257°
2026-04-15 21:57 42.41475 20.57624 17779 ft 375 kts 257°
2026-04-15 21:57 42.41115 20.55324 18268 ft 378 kts 257°
2026-04-15 21:57 42.40567 20.51830 18924 ft 382 kts 257°
2026-04-15 21:57 42.40013 20.48304 19567 ft 385 kts 257°
2026-04-15 21:58 42.39450 20.44733 20166 ft 390 kts 257°
2026-04-15 21:58 42.38881 20.41133 20785 ft 393 kts 257°
2026-04-15 21:58 42.38307 20.37506 21418 ft 396 kts 257°
2026-04-15 21:58 42.37735 20.33895 22028 ft 400 kts 256°
2026-04-15 21:59 42.37148 20.30204 22590 ft 404 kts 256°
2026-04-15 21:59 42.36554 20.26476 23191 ft 407 kts 256°
2026-04-15 21:59 42.36019 20.22695 23757 ft 412 kts 262°
2026-04-15 21:59 42.36056 20.18821 24265 ft 416 kts 278°
2026-04-15 22:00 42.36966 20.15115 24844 ft 419 kts 296°
2026-04-15 22:00 42.38526 20.11773 25370 ft 421 kts 303°
2026-04-15 22:00 42.40249 20.08545 25890 ft 423 kts 304°
2026-04-15 22:00 42.41986 20.05333 26381 ft 424 kts 304°
2026-04-15 22:01 42.43698 20.02149 26906 ft 424 kts 304°
2026-04-15 22:01 42.45427 19.98916 27460 ft 424 kts 304°
2026-04-15 22:01 42.47151 19.95676 28042 ft 424 kts 304°
2026-04-15 22:01 42.48871 19.92434 28558 ft 425 kts 303°
2026-04-15 22:02 42.50597 19.89172 29006 ft 426 kts 303°
2026-04-15 22:02 42.52326 19.85897 29480 ft 428 kts 303°
2026-04-15 22:02 42.54061 19.82605 29972 ft 430 kts 303°
2026-04-15 22:02 42.55801 19.79302 30410 ft 432 kts 303°
2026-04-15 22:03 42.57558 19.75963 30680 ft 436 kts 303°
2026-04-15 22:03 42.59299 19.72649 31033 ft 439 kts 303°
2026-04-15 22:03 42.61072 19.69271 31463 ft 440 kts 303°
2026-04-15 22:03 42.62845 19.65889 31880 ft 440 kts 303°
2026-04-15 22:04 42.64622 19.62496 32295 ft 441 kts 303°
2026-04-15 22:04 42.66393 19.59112 32857 ft 438 kts 302°
2026-04-15 22:04 42.68156 19.55739 33476 ft 434 kts 302°
2026-04-15 22:04 42.69890 19.52416 34100 ft 430 kts 302°
2026-04-15 22:05 42.71594 19.49147 34524 ft 428 kts 302°
2026-04-15 22:05 42.73319 19.45834 34788 ft 431 kts 302°
2026-04-15 22:05 42.75058 19.42487 35009 ft 435 kts 302°
2026-04-15 22:06 42.78510 19.35845 35117 ft 424 kts 302°
2026-04-15 22:06 42.81895 19.29311 35106 ft 421 kts 302°
2026-04-15 22:07 42.85246 19.22826 35121 ft 421 kts 302°
2026-04-15 22:07 42.88614 19.16297 35122 ft 421 kts 302°
2026-04-15 22:08 42.91982 19.09752 35115 ft 421 kts 301°
2026-04-15 22:08 42.95349 19.03196 35112 ft 422 kts 301°
2026-04-15 22:09 42.98718 18.96622 35109 ft 423 kts 301°
2026-04-15 22:09 43.02055 18.90088 35124 ft 422 kts 301°
2026-04-15 22:10 43.05414 18.83507 35113 ft 422 kts 301°
2026-04-15 22:10 43.08769 18.76918 35115 ft 422 kts 301°
2026-04-15 22:11 43.12126 18.70313 35114 ft 423 kts 301°
2026-04-15 22:11 43.15463 18.63728 35121 ft 424 kts 301°
2026-04-15 22:12 43.18817 18.57093 35116 ft 424 kts 301°
2026-04-15 22:12 43.22170 18.50448 35116 ft 424 kts 301°
2026-04-15 22:13 43.25516 18.43801 35121 ft 424 kts 301°
2026-04-15 22:13 43.28871 18.37118 35119 ft 428 kts 302°
2026-04-15 22:14 43.32232 18.30412 35115 ft 430 kts 302°
2026-04-15 22:14 43.35616 18.23646 35107 ft 430 kts 302°
2026-04-15 22:15 43.38995 18.16873 35106 ft 430 kts 302°
2026-04-15 22:15 43.42370 18.10092 35099 ft 429 kts 302°
2026-04-15 22:16 43.45717 18.03350 35097 ft 430 kts 302°
2026-04-15 22:16 43.49084 17.96554 35098 ft 430 kts 302°
2026-04-15 22:17 43.52443 17.89758 35100 ft 429 kts 302°
2026-04-15 22:17 43.55804 17.82943 35104 ft 429 kts 302°
2026-04-15 22:18 43.59154 17.76132 35117 ft 429 kts 302°
2026-04-15 22:18 43.62484 17.69345 35130 ft 431 kts 302°
2026-04-15 22:19 43.65845 17.62483 35130 ft 432 kts 302°
2026-04-15 22:19 43.69202 17.55613 35128 ft 432 kts 302°
2026-04-15 22:20 43.72559 17.48725 35136 ft 432 kts 302°
2026-04-15 22:20 43.75885 17.41886 35138 ft 432 kts 302°
2026-04-15 22:21 43.79230 17.34989 35140 ft 432 kts 302°
2026-04-15 22:21 43.82578 17.28073 35141 ft 433 kts 302°
2026-04-15 22:22 43.85923 17.21146 35149 ft 433 kts 302°
2026-04-15 22:22 43.89258 17.14221 35150 ft 432 kts 302°
2026-04-15 22:23 43.92576 17.07317 35145 ft 434 kts 302°
2026-04-15 22:23 43.95920 17.00340 35155 ft 434 kts 302°
2026-04-15 22:24 43.99258 16.93361 35152 ft 434 kts 302°
2026-04-15 22:24 44.02593 16.86372 35143 ft 434 kts 302°
2026-04-15 22:25 44.05924 16.79373 35151 ft 435 kts 302°
2026-04-15 22:25 44.09237 16.72396 35150 ft 435 kts 302°
2026-04-15 22:26 44.12564 16.65373 35141 ft 435 kts 302°
2026-04-15 22:26 44.15887 16.58340 35143 ft 435 kts 302°
2026-04-15 22:27 44.19214 16.51282 35148 ft 435 kts 302°
2026-04-15 22:27 44.22508 16.44277 35147 ft 435 kts 302°
2026-04-15 22:28 44.25825 16.37206 35141 ft 436 kts 302°
2026-04-15 22:28 44.29144 16.30114 35145 ft 437 kts 302°
2026-04-15 22:29 44.32463 16.23004 35144 ft 437 kts 302°
2026-04-15 22:29 44.35741 16.15964 35141 ft 435 kts 302°
2026-04-15 22:30 44.39029 16.08886 35145 ft 434 kts 302°
2026-04-15 22:30 44.42312 16.01800 35154 ft 435 kts 302°
2026-04-15 22:31 44.45596 15.94697 35153 ft 434 kts 302°
2026-04-15 22:31 44.48867 15.87604 35152 ft 433 kts 303°
2026-04-15 22:32 44.52109 15.80555 35163 ft 434 kts 303°
2026-04-15 22:32 44.55372 15.73444 35162 ft 434 kts 303°
2026-04-15 22:33 44.58636 15.66313 35161 ft 435 kts 303°
2026-04-15 22:33 44.61899 15.59167 35162 ft 434 kts 303°
2026-04-15 22:34 44.65136 15.52058 35169 ft 435 kts 303°
2026-04-15 22:34 44.68394 15.44887 35167 ft 435 kts 303°
2026-04-15 22:35 44.71644 15.37715 35157 ft 436 kts 303°
2026-04-15 22:35 44.74900 15.30509 35150 ft 436 kts 305°
2026-04-15 22:36 44.78162 15.23278 35156 ft 438 kts 305°
2026-04-15 22:36 44.80854 15.17293 35159 ft 438 kts 305°
2026-04-15 22:37 44.84192 15.10128 35153 ft 435 kts 314°
2026-04-15 22:37 44.86445 15.07389 35155 ft 428 kts 328°
2026-04-15 22:37 44.88863 15.04909 35152 ft 430 kts 323°
2026-04-15 22:38 44.93066 14.98857 35154 ft 435 kts 311°
2026-04-15 22:38 44.96640 14.92021 35153 ft 437 kts 307°
2026-04-15 22:39 45.00020 14.84867 35145 ft 438 kts 306°
2026-04-15 22:39 45.03323 14.77643 35138 ft 438 kts 306°
2026-04-15 22:40 45.06603 14.70391 35126 ft 438 kts 306°
2026-04-15 22:40 45.07693 14.67971 35130 ft 438 kts 306°
2026-04-15 22:41 45.14678 14.52403 35128 ft 439 kts 306°
2026-04-15 22:41 45.17943 14.45094 35130 ft 439 kts 306°
2026-04-15 22:42 45.21180 14.37829 35118 ft 439 kts 306°
2026-04-15 22:42 45.24439 14.30497 35141 ft 440 kts 307°
2026-04-15 22:43 45.27702 14.23135 35130 ft 440 kts 307°
2026-04-15 22:43 45.30961 14.15763 35154 ft 441 kts 307°
2026-04-15 22:44 45.34215 14.08384 35154 ft 441 kts 307°
2026-04-15 22:44 45.37447 14.01037 35145 ft 440 kts 307°
2026-04-15 22:45 45.40686 13.93653 35145 ft 440 kts 307°
2026-04-15 22:45 45.43921 13.86259 35136 ft 440 kts 307°
2026-04-15 22:46 45.47149 13.78862 35132 ft 440 kts 307°
2026-04-15 22:46 45.50375 13.71450 35121 ft 440 kts 307°
2026-04-15 22:47 45.53564 13.64101 35130 ft 438 kts 307°
2026-04-15 22:47 45.56764 13.56711 35129 ft 437 kts 307°
2026-04-15 22:48 45.59949 13.49335 35133 ft 436 kts 307°
2026-04-15 22:48 45.63131 13.41948 35136 ft 436 kts 307°
2026-04-15 22:49 45.66280 13.34618 35135 ft 435 kts 306°
2026-04-15 22:49 45.69440 13.27241 35140 ft 435 kts 306°
2026-04-15 22:50 45.72597 13.19854 35135 ft 435 kts 306°
2026-04-15 22:50 45.75744 13.12469 35138 ft 435 kts 306°
2026-04-15 22:51 45.78889 13.05070 35135 ft 435 kts 306°
2026-04-15 22:51 45.82010 12.97709 35150 ft 435 kts 306°
2026-04-15 22:52 45.85150 12.90284 35153 ft 435 kts 306°
2026-04-15 22:52 45.88280 12.82860 35158 ft 435 kts 306°
2026-04-15 22:53 45.91412 12.75414 35154 ft 437 kts 305°
2026-04-15 22:53 45.94596 12.67833 35140 ft 455 kts 305°
2026-04-15 22:54 45.97916 12.59900 35159 ft 471 kts 304°
2026-04-15 22:54 46.01331 12.51711 35160 ft 481 kts 304°
2026-04-15 22:55 46.04767 12.43440 35165 ft 480 kts 304°
2026-04-15 22:55 46.08188 12.35186 35164 ft 480 kts 304°
2026-04-15 22:56 46.11579 12.26982 35170 ft 479 kts 304°
2026-04-15 22:56 46.14983 12.18721 35170 ft 479 kts 304°
2026-04-15 22:57 46.18387 12.10435 35178 ft 480 kts 304°
2026-04-15 22:57 46.21781 12.02154 35150 ft 479 kts 303°
2026-04-15 22:58 46.25141 11.93927 35172 ft 478 kts 303°
2026-04-15 22:58 46.28518 11.85635 35171 ft 478 kts 303°
2026-04-15 22:59 46.31885 11.77341 35171 ft 478 kts 303°
2026-04-15 22:59 46.33562 11.73201 35062 ft 477 kts 303°
2026-04-15 22:59 46.35237 11.69060 34831 ft 477 kts 303°
2026-04-15 23:00 46.36895 11.64956 34593 ft 479 kts 303°
2026-04-15 23:00 46.38579 11.60782 34347 ft 480 kts 303°
2026-04-15 23:00 46.40260 11.56607 34089 ft 481 kts 302°
2026-04-15 23:00 46.41946 11.52413 33830 ft 482 kts 302°
2026-04-15 23:01 46.43632 11.48213 33565 ft 483 kts 302°
2026-04-15 23:01 46.45323 11.43997 33294 ft 484 kts 302°
2026-04-15 23:01 46.47012 11.39776 33030 ft 484 kts 302°
2026-04-15 23:01 46.48703 11.35544 32771 ft 485 kts 302°
2026-04-15 23:02 46.50393 11.31306 32480 ft 485 kts 302°
2026-04-15 23:02 46.52058 11.27124 32229 ft 485 kts 302°
2026-04-15 23:02 46.53746 11.22882 31979 ft 486 kts 302°
2026-04-15 23:02 46.55436 11.18626 31724 ft 486 kts 302°
2026-04-15 23:03 46.57124 11.14369 31475 ft 487 kts 302°
2026-04-15 23:03 46.58814 11.10099 31228 ft 488 kts 302°
2026-04-15 23:03 46.60507 11.05818 30984 ft 489 kts 302°
2026-04-15 23:03 46.61082 11.04361 30902 ft 489 kts 302°
2026-04-15 23:04 46.64084 10.96746 30460 ft 490 kts 301°
2026-04-15 23:04 46.65776 10.92443 30220 ft 490 kts 301°
2026-04-15 23:04 46.67469 10.88132 29942 ft 490 kts 301°
2026-04-15 23:04 46.69159 10.83820 29672 ft 490 kts 301°
2026-04-15 23:05 46.70841 10.79524 29393 ft 488 kts 301°
2026-04-15 23:05 46.72515 10.75239 29124 ft 486 kts 301°
2026-04-15 23:05 46.73621 10.72407 28932 ft 484 kts 301°
2026-04-15 23:05 46.75280 10.68152 28664 ft 482 kts 301°
2026-04-15 23:06 46.77489 10.62474 28297 ft 480 kts 301°
2026-04-15 23:06 46.79129 10.58251 28033 ft 477 kts 300°
2026-04-15 23:06 46.80726 10.54131 27788 ft 466 kts 300°
2026-04-15 23:06 46.82293 10.50082 27541 ft 450 kts 300°
2026-04-15 23:07 46.83806 10.46167 27311 ft 436 kts 300°
2026-04-15 23:07 46.85274 10.42363 27072 ft 424 kts 300°
2026-04-15 23:07 46.86699 10.38664 26821 ft 411 kts 300°
2026-04-15 23:07 46.88083 10.35069 26587 ft 401 kts 300°
2026-04-15 23:08 46.89431 10.31564 26348 ft 391 kts 300°
2026-04-15 23:08 46.90745 10.28143 26118 ft 381 kts 300°
2026-04-15 23:08 46.92011 10.24843 25885 ft 373 kts 300°
2026-04-15 23:08 46.93263 10.21578 25649 ft 365 kts 300°
2026-04-15 23:09 46.94490 10.18370 25413 ft 357 kts 300°
2026-04-15 23:09 46.95691 10.15228 25187 ft 350 kts 300°
2026-04-15 23:09 46.96868 10.12144 24963 ft 344 kts 300°
2026-04-15 23:09 46.98022 10.09119 24722 ft 337 kts 300°
2026-04-15 23:10 46.98772 10.07149 24575 ft 333 kts 300°
2026-04-15 23:10 46.99896 10.04196 24360 ft 327 kts 300°
2026-04-15 23:10 47.00978 10.01350 24141 ft 322 kts 300°
2026-04-15 23:10 47.02076 9.98459 23921 ft 317 kts 300°
2026-04-15 23:11 47.03121 9.95703 23677 ft 312 kts 300°
2026-04-15 23:11 47.04166 9.92948 23401 ft 308 kts 300°
2026-04-15 23:11 47.05197 9.90224 23141 ft 303 kts 300°
2026-04-15 23:11 47.06218 9.87527 22879 ft 299 kts 299°
2026-04-15 23:12 47.07216 9.84884 22612 ft 295 kts 299°
2026-04-15 23:12 47.08202 9.82274 22367 ft 291 kts 299°
2026-04-15 23:12 47.09154 9.79677 22140 ft 286 kts 295°
2026-04-15 23:12 47.09977 9.77037 21856 ft 284 kts 295°
2026-04-15 23:13 47.10784 9.74364 21217 ft 291 kts 294°
2026-04-15 23:13 47.11600 9.71616 20198 ft 304 kts 294°
2026-04-15 23:13 47.12458 9.68696 19011 ft 320 kts 294°
2026-04-15 23:13 47.13355 9.65622 17710 ft 332 kts 294°
2026-04-15 23:14 47.14270 9.62473 16418 ft 340 kts 294°
2026-04-15 23:14 47.15207 9.59240 15167 ft 345 kts 294°
2026-04-15 23:14 47.16146 9.55996 13955 ft 346 kts 294°
2026-04-15 23:14 47.17088 9.52741 12659 ft 346 kts 293°
2026-04-15 23:15 47.17391 9.51692 12233 ft 345 kts 293°
2026-04-15 23:15 47.19804 9.43319 8942 ft 335 kts 292°
2026-04-15 23:15 47.20414 9.41193 8096 ft 331 kts 292°
2026-04-15 23:17 47.24891 9.23738 8137 ft 210 kts 300°
2026-04-15 23:17 47.25637 9.21897 7881 ft 209 kts 296°
2026-04-15 23:18 47.26310 9.20004 7651 ft 208 kts 294°
2026-04-15 23:18 47.26933 9.18081 7409 ft 207 kts 292°
2026-04-15 23:18 47.27521 9.16158 7157 ft 206 kts 291°
2026-04-15 23:18 47.28093 9.14221 6914 ft 206 kts 291°
2026-04-15 23:19 47.28604 9.12268 6773 ft 205 kts 287°
2026-04-15 23:19 47.29044 9.10274 6734 ft 205 kts 285°
2026-04-15 23:19 47.29465 9.08269 6735 ft 204 kts 285°
2026-04-15 23:19 47.29873 9.06296 6721 ft 204 kts 285°
2026-04-15 23:20 47.30284 9.04300 6713 ft 204 kts 285°
2026-04-15 23:20 47.30694 9.02306 6697 ft 204 kts 285°
2026-04-15 23:20 47.31105 9.00309 6682 ft 204 kts 285°
2026-04-15 23:20 47.31517 8.98308 6635 ft 204 kts 285°
2026-04-15 23:21 47.31925 8.96320 6589 ft 204 kts 285°
2026-04-15 23:21 47.32328 8.94339 6544 ft 203 kts 285°
2026-04-15 23:21 47.32734 8.92346 6509 ft 203 kts 285°
2026-04-15 23:21 47.33003 8.91028 6470 ft 203 kts 285°